Location: Hamilton
(37.7830°S, 175.2830°E)
Time: 22:06:01
(UTC+13:00)

Cosmos 1741 Rocket - Pass Details

Date: 24 January 2019
Orbit: 761 x 783 km, 74.0° (Epoch: 15 October)

Event Time Altitude Azimuth Distance (km) Brightness Sun altitude
Rises 21:17:52 0° 338° (NNW) 3,252 7.1 -7.7°
Reaches altitude 10° 21:20:14 10° 336° (NNW) 2,335 6.4 -8.1°
Maximum altitude 21:25:33 73° 251° (WSW) 829 4.4 -9.0°
Drops below altitude 10° 21:30:57 10° 166° (SSE) 2,371 6.8 -9.9°
Sets 21:33:22 0° 163° (SSE) 3,307 7.5 -10.3°
